C/2007 U1 ( LINEAR )

Japanese version
Home page
Total 5,708 html files since Dec. 4, 1995
Updated on April 12, 2008

---------------------------------------------------------------------

* Profile

Discovery Date October 19, 2007
Magnitude 19.4 mag
Discoverer Lincoln Laboratory Near-Earth Asteroid Research project

* Pictures

* Orbital Elements

The following orbital elements are taken from MPC 61704:

Epoch 2008 Aug. 2.0 TT = JDT 2454680.5
T 2008 Aug. 7.0204 TT                                   MPC
q   3.329274             (2000.0)            P               Q
z  -0.000544       Peri.    0.9213      +0.6535720      +0.6991993
 +/-0.000043       Node    50.0406      +0.6919691      -0.7071127
e   1.001812       Incl.  157.7878      +0.3066306      +0.1054138
From 194 observations 2007 Oct. 19-2008 Jan. 19, mean residual 0".5.

* Finding Charts

* Magnitudes Graph

        m1 = 8.5 + 5 log d + 10.0 log r

---------------------------------------------------------------------

The orbital elements are published at the MPC Ephemerides and Orbital Elements.
The charts are made with StellaNavigator Ver.8 (AstroArts).
The magnitudes graphs are made with Comet for Windows.

---------------------------------------------------------------------

Copyright(C) 1995-2007 Seiichi Yoshida (comet@aerith.net). All rights reserved.